Wind_Speed
27 28 26 24 24 24 24 22 20 20 18 21 28 34 34 27 27 32 35 36 37 38 39 39 36 29 28 28 29 30 31 33 34 34 34 33 32 30 30 30 30 32 33 34
27 25 21 22 20 20 22 27 28 27 27 28 29 32 36 35 32 30 37 41 40 40 42 39 36 33 31 31 32 34 35 37 39 40 40 39 38 37 36 36 36 36 36 36
22 17 17 20 21 21 24 26 28 30 30 33 35 36 39 42 37 37 40 45 44 42 45 43 39 37 34 33 33 36 37 38 40 42 44 44 44 43 42 42 41 40 39 39
19 19 17 19 20 21 24 24 25 28 30 32 32 36 36 37 35 31 35 41 42 38 42 42 38 36 36 35 34 36 38 39 41 44 45 46 47 47 47 47 46 44 43 42
19 18 19 18 17 18 18 18 21 23 26 31 33 38 37 33 30 30 30 34 38 36 37 39 37 37 38 36 33 35 38 41 43 45 47 48 49 50 51 51 50 47 44 44
22 18 18 19 19 19 17 18 20 22 24 29 27 30 32 29 28 29 27 30 35 33 33 36 35 34 35 34 34 36 39 42 44 45 47 49 50 51 52 52 50 48 45 46
22 21 21 22 21 20 20 19 19 20 22 22 17 22 23 20 21 26 26 30 32 30 36 38 36 34 33 34 35 36 38 40 42 44 47 48 49 50 50 48 46 45 46 47
22 23 22 24 25 23 22 22 21 19 20 19 16 18 18 18 20 25 29 34 37 39 39 38 36 32 31 31 33 35 37 40 42 44 45 46 47 47 46 45 44 45 47 47
21 20 20 23 24 25 21 24 22 22 21 23 23 23 20 20 22 25 28 32 36 35 32 32 31 30 29 30 32 34 35 37 39 41 42 43 44 44 43 43 44 45 47 49
32 30 20 17 22 25 24 22 22 24 25 26 24 21 19 22 23 26 29 33 31 24 25 27 28 28 28 30 31 32 34 36 38 39 40 41 43 42 42 43 45 48 51 53
37 37 31 22 21 21 21 21 22 25 26 25 24 20 22 27 29 31 33 35 31 26 26 27 28 28 29 30 31 32 34 36 38 40 41 42 43 42 43 46 49 51 53 54
39 38 39 36 30 24 24 26 26 28 29 28 29 26 28 31 30 31 34 39 38 31 27 27 28 29 30 31 32 34 36 38 40 42 43 45 46 47 49 50 51 52 53 53
42 42 41 38 33 29 28 28 30 31 31 30 29 26 31 34 34 35 39 41 36 27 24 25 28 30 32 34 35 37 39 40 42 44 46 48 49 50 50 51 52 53 53 54
38 40 40 36 26 25 32 32 31 29 30 31 28 28 36 38 38 40 40 33 26 22 25 27 30 33 36 38 39 40 41 44 47 50 51 51 51 51 52 53 54 54 56 59
38 39 40 39 36 32 28 31 33 36 35 31 28 29 34 36 38 39 35 28 24 24 27 30 33 36 38 39 40 42 44 49 52 55 54 53 53 53 54 55 56 58 61 64
35 37 37 37 36 37 35 32 31 31 27 25 26 31 39 41 41 39 38 37 33 30 32 34 36 39 40 42 44 47 50 53 56 56 54 54 55 56 57 59 62 64 63 60
34 33 34 34 34 35 39 37 35 37 36 36 37 42 45 46 46 46 45 47 46 44 42 41 43 44 46 48 50 52 54 55 55 53 54 55 58 59 61 63 63 60 56 50
34 34 34 34 36 39 36 35 38 41 43 45 46 47 46 44 45 46 47 50 52 51 48 48 49 50 52 53 54 54 53 52 51 50 52 55 58 59 58 57 54 50 47 44
35 35 35 36 37 38 34 36 40 43 47 47 46 45 45 45 47 46 46 48 49 50 50 50 50 50 51 50 50 48 47 47 47 49 52 55 57 56 53 50 46 43 43 44
29 31 32 33 35 36 37 39 40 41 45 45 44 42 41 41 43 43 44 45 47 47 47 46 45 44 43 43 43 44 45 45 46 49 52 54 54 51 48 44 43 43 44 46
23 25 27 29 32 32 37 38 39 41 45 43 40 38 37 39 40 41 42 42 43 43 43 42 41 41 41 41 41 41 41 42 45 49 51 52 50 47 44 42 42 44 46 47
27 28 28 28 29 31 35 37 39 41 41 39 38 36 35 36 37 36 36 36 37 37 37 37 37 36 36 36 36 37 40 43 45 46 45 43 41 41 42 43 44 45 47 47
28 28 28 28 29 30 32 35 37 38 37 36 35 34 34 34 33 32 31 31 31 32 31 31 31 31 31 32 34 37 39 41 41 39 38 37 38 39 41 43 44 45 45 43
24 25 26 27 29 32 34 35 35 35 35 34 34 34 34 33 31 30 29 28 28 27 27 26 26 27 29 31 34 36 36 35 34 34 35 36 37 39 41 42 42 40 36 32
23 24 24 25 28 31 34 35 35 35 35 36 35 34 34 32 30 28 26 25 24 22 21 21 23 26 29 31 32 31 30 29 31 33 34 36 37 39 38 36 32 28 25 22
23 24 24 26 28 30 31 32 33 32 32 32 32 32 31 29 26 24 22 20 18 17 18 21 23 24 25 25 24 24 26 28 31 33 34 35 35 33 30 26 23 22 21 20
Wind_Direction
234 236 237 239 238 236 230 225 234 247 254 245 248 250 251 240 251 262 259 259 265 273 276 278 279 287 292 288 283 282 284 287 287 286 284 284 286 289 292 294 296 298 298 298
234 236 236 234 232 240 239 233 228 227 225 226 234 248 256 250 235 251 265 265 267 271 275 279 282 284 286 282 279 279 281 283 284 284 282 282 284 286 288 287 289 291 294 295
232 225 231 232 226 231 239 242 241 241 240 237 236 245 254 261 259 248 256 265 269 270 272 276 280 280 280 276 274 276 277 279 281 282 281 281 282 284 287 286 284 284 287 290
210 205 219 233 232 236 246 250 250 247 246 245 245 253 259 270 278 270 260 264 271 274 273 276 277 275 275 272 270 272 273 276 279 279 279 280 282 284 286 286 283 280 283 285
199 207 218 234 241 241 249 252 253 254 256 258 251 253 257 259 266 267 271 270 269 273 275 276 273 269 269 269 270 271 272 274 276 276 276 279 282 283 286 287 286 284 284 285
207 213 231 239 244 254 257 256 258 259 260 263 270 269 270 265 259 263 271 268 266 273 273 272 271 268 267 269 271 271 271 272 273 275 277 280 283 284 287 288 289 287 286 287
221 219 223 238 242 249 260 265 266 268 272 283 295 289 290 285 264 253 251 251 258 264 265 270 271 268 268 270 270 271 272 273 275 277 279 281 283 285 287 288 289 289 289 291
239 243 240 244 252 256 257 263 266 259 256 265 265 275 284 270 255 247 246 251 258 264 269 270 268 268 267 268 270 273 275 277 279 280 282 283 283 284 285 287 290 291 292 295
228 244 258 261 260 260 249 247 262 270 269 264 259 253 260 279 272 264 260 260 264 269 271 267 265 264 264 267 270 273 276 278 281 283 284 284 284 284 284 290 294 296 298 301
215 218 214 236 241 253 259 256 246 250 260 266 270 271 271 263 259 255 252 258 261 269 276 272 267 264 263 265 269 273 277 280 283 285 285 285 286 287 290 294 297 299 300 301
221 222 213 210 232 246 260 263 251 246 247 256 266 270 271 263 260 260 264 268 269 279 278 269 264 263 264 267 272 276 280 282 284 286 288 289 289 292 295 297 299 299 299 298
227 229 229 224 224 234 247 251 251 254 257 257 259 260 265 265 265 266 268 269 271 276 273 267 263 262 265 269 275 281 283 285 288 291 291 292 293 295 296 297 298 297 296 294
232 238 242 241 239 237 240 246 247 248 249 251 254 261 263 264 265 267 267 265 261 263 270 271 268 268 269 272 277 281 285 289 292 294 295 295 295 295 296 297 296 295 294 294
239 242 246 244 236 237 237 239 242 244 246 250 252 252 257 263 267 269 269 259 250 264 276 276 273 272 273 275 278 282 286 290 293 295 296 295 293 293 293 295 295 295 294 294
243 243 244 244 237 232 241 242 244 239 231 234 241 250 254 257 263 267 269 270 274 281 281 279 277 276 276 278 281 284 287 291 294 295 296 293 291 292 292 293 294 293 292 292
245 246 247 247 244 235 238 243 247 253 254 251 248 254 254 254 259 266 272 276 281 284 283 281 280 281 282 283 284 286 289 292 293 294 294 291 289 291 291 291 290 289 289 290
255 252 250 250 246 241 239 240 244 250 254 255 253 252 256 259 262 266 270 276 281 283 283 282 283 283 283 284 286 287 289 290 291 291 290 289 288 289 293 293 292 290 291 293
254 255 253 251 248 245 249 246 247 248 251 254 258 264 267 268 268 269 271 274 278 282 284 285 284 283 283 283 285 286 287 288 289 289 289 289 288 289 291 294 296 297 299 301
253 253 253 251 250 251 248 247 249 250 253 257 261 266 268 270 271 271 272 275 277 280 282 283 283 283 282 282 283 284 285 286 288 288 287 287 289 293 298 302 303 304 303 303
253 255 254 252 251 250 247 247 250 253 257 260 262 264 266 268 269 272 273 275 277 279 280 281 282 282 282 282 283 284 285 286 287 287 288 290 295 302 306 308 307 305 304 305
250 256 258 258 255 248 248 249 250 250 254 261 264 265 266 267 271 274 275 277 279 280 281 281 281 281 281 282 284 285 286 286 286 288 291 296 302 306 308 307 306 306 307 307
257 262 265 264 259 250 250 249 249 254 259 262 263 265 267 270 273 276 278 280 281 282 282 282 282 282 283 285 286 286 287 289 291 294 298 303 306 307 307 307 308 308 309 309
256 258 260 261 260 260 257 255 255 257 260 262 264 266 268 270 273 277 279 281 282 283 283 284 284 286 286 287 288 289 291 294 299 303 306 308 308 308 308 308 308 309 309 310
259 259 258 258 259 260 262 262 263 262 263 264 265 266 267 269 272 274 277 279 281 283 285 287 288 289 288 290 292 295 299 302 306 308 309 309 309 309 309 310 311 313 314 315
264 265 263 261 261 261 263 266 267 266 265 264 263 263 264 265 267 270 273 276 280 284 288 290 290 290 292 295 299 302 306 309 310 310 310 310 311 312 315 317 319 321 323 324
267 269 268 266 264 263 263 263 264 264 263 261 260 258 257 258 260 263 266 271 277 282 285 287 290 295 300 304 307 310 312 313 313 313 313 315 318 320 323 325 327 328 328 327
Height
5823 5826 5830 5834 5837 5841 5843 5847 5853 5857 5861 5862 5862 5861 5862 5865 5865 5862 5862 5863 5862 5860 5856 5852 5851 5852 5855 5855 5855 5854 5853 5853 5852 5851 5849 5848 5847 5846 5845 5842 5840 5838 5835 5832
5819 5822 5826 5828 5832 5835 5838 5841 5844 5848 5851 5854 5855 5853 5852 5855 5858 5857 5854 5855 5856 5854 5849 5845 5847 5848 5849 5849 5849 5848 5847 5846 5845 5844 5843 5842 5841 5839 5838 5836 5833 5830 5827 5824
5815 5820 5822 5824 5827 5831 5834 5837 5839 5842 5844 5845 5846 5846 5845 5845 5850 5851 5849 5846 5848 5848 5842 5841 5842 5842 5841 5841 5841 5841 5840 5838 5837 5836 5835 5834 5833 5831 5830 5828 5825 5822 5818 5816
5811 5814 5819 5821 5824 5826 5828 5830 5832 5833 5835 5836 5839 5837 5839 5839 5839 5840 5841 5839 5839 5839 5835 5833 5834 5832 5832 5833 5834 5833 5832 5831 5830 5828 5827 5826 5824 5822 5820 5818 5815 5811 5809 5806
5808 5811 5815 5818 5820 5821 5823 5825 5826 5827 5828 5828 5829 5829 5830 5833 5834 5834 5833 5832 5831 5831 5827 5824 5825 5825 5823 5824 5826 5826 5825 5823 5821 5820 5819 5817 5815 5813 5810 5807 5804 5801 5799 5796
5803 5807 5811 5814 5816 5817 5818 5819 5820 5820 5821 5821 5823 5823 5822 5826 5828 5829 5829 5825 5822 5821 5819 5816 5816 5816 5815 5815 5817 5817 5816 5814 5813 5812 5810 5808 5806 5802 5799 5796 5793 5789 5788 5786
5799 5802 5806 5809 5811 5813 5813 5814 5815 5815 5815 5815 5818 5817 5817 5819 5820 5822 5821 5818 5815 5814 5810 5808 5809 5809 5807 5807 5807 5807 5807 5806 5805 5804 5802 5799 5796 5793 5789 5786 5782 5778 5775 5774
5795 5798 5801 5803 5805 5807 5808 5809 5810 5812 5813 5814 5816 5815 5814 5813 5814 5813 5813 5811 5809 5806 5804 5803 5802 5801 5801 5800 5800 5799 5799 5798 5797 5795 5792 5789 5786 5783 5779 5775 5773 5769 5764 5761
5792 5796 5799 5798 5799 5800 5802 5803 5805 5806 5805 5805 5807 5809 5810 5808 5806 5805 5805 5803 5800 5799 5798 5796 5795 5794 5794 5793 5793 5792 5791 5790 5788 5786 5783 5780 5776 5773 5770 5766 5763 5759 5754 5749
5782 5786 5790 5793 5794 5795 5796 5798 5800 5801 5801 5800 5801 5803 5805 5802 5799 5798 5795 5792 5791 5792 5791 5789 5788 5788 5787 5786 5786 5785 5784 5782 5780 5778 5775 5771 5767 5764 5760 5757 5753 5748 5742 5737
5774 5778 5783 5787 5790 5792 5793 5793 5793 5795 5796 5796 5796 5800 5795 5793 5793 5792 5789 5786 5784 5782 5782 5782 5782 5781 5781 5780 5779 5778 5776 5774 5772 5768 5765 5762 5758 5754 5750 5746 5742 5736 5730 5725
5766 5769 5773 5778 5781 5785 5787 5788 5789 5789 5788 5788 5788 5793 5787 5785 5784 5783 5780 5776 5776 5775 5775 5775 5775 5775 5774 5773 5772 5770 5767 5765 5762 5759 5755 5751 5747 5743 5739 5734 5729 5724 5718 5712
5758 5761 5765 5769 5775 5777 5778 5779 5780 5781 5781 5780 5781 5785 5776 5775 5775 5773 5770 5765 5765 5766 5767 5768 5768 5767 5766 5765 5763 5761 5758 5755 5752 5748 5744 5740 5735 5731 5726 5721 5716 5710 5704 5699
5750 5753 5757 5761 5766 5767 5768 5769 5770 5772 5773 5773 5774 5774 5766 5766 5766 5764 5759 5751 5750 5756 5760 5761 5760 5759 5757 5756 5754 5751 5748 5745 5741 5736 5732 5728 5723 5718 5713 5708 5703 5697 5691 5685
5740 5744 5746 5750 5754 5757 5758 5760 5761 5760 5760 5762 5763 5760 5756 5758 5757 5754 5751 5747 5748 5751 5753 5752 5751 5750 5748 5746 5744 5741 5738 5733 5729 5724 5720 5715 5710 5705 5700 5695 5689 5683 5677 5671
5730 5734 5737 5740 5745 5747 5750 5752 5753 5752 5751 5751 5753 5750 5745 5748 5748 5747 5744 5742 5742 5744 5744 5743 5742 5741 5739 5737 5734 5730 5726 5722 5717 5712 5707 5702 5697 5692 5687 5682 5676 5670 5663 5657
5721 5725 5728 5731 5734 5736 5740 5744 5744 5745 5744 5742 5740 5738 5739 5740 5741 5741 5739 5735 5732 5732 5734 5734 5732 5730 5728 5725 5722 5718 5714 5710 5705 5700 5695 5690 5685 5680 5674 5668 5662 5656 5649 5644
5712 5715 5718 5722 5724 5726 5733 5733 5732 5733 5730 5730 5730 5731 5733 5734 5732 5732 5731 5727 5724 5723 5723 5722 5720 5717 5715 5712 5709 5705 5701 5697 5693 5689 5684 5679 5673 5668 5662 5656 5650 5644 5638 5633
5703 5706 5708 5711 5713 5717 5721 5719 5721 5722 5718 5721 5722 5723 5724 5724 5721 5722 5721 5719 5716 5713 5711 5709 5707 5704 5702 5699 5696 5693 5689 5685 5681 5677 5672 5667 5662 5656 5650 5643 5638 5633 5628 5623
5695 5697 5700 5702 5704 5707 5707 5708 5710 5712 5707 5710 5712 5714 5714 5713 5711 5711 5710 5707 5705 5703 5700 5698 5695 5693 5690 5687 5685 5682 5678 5674 5670 5666 5661 5656 5650 5644 5638 5632 5627 5622 5617 5611
5688 5689 5691 5693 5695 5696 5694 5698 5700 5701 5698 5700 5702 5703 5703 5702 5700 5700 5698 5696 5694 5692 5689 5687 5685 5682 5680 5677 5674 5671 5668 5664 5660 5655 5650 5645 5638 5633 5628 5623 5617 5612 5606 5600
5683 5684 5684 5685 5686 5687 5685 5687 5689 5689 5690 5691 5692 5693 5692 5690 5689 5689 5688 5686 5684 5682 5679 5677 5675 5673 5670 5668 5665 5662 5658 5654 5650 5645 5640 5634 5629 5623 5618 5613 5607 5601 5595 5589
5676 5678 5678 5679 5679 5678 5678 5678 5679 5680 5681 5682 5683 5683 5682 5681 5680 5680 5679 5677 5675 5673 5671 5669 5667 5665 5663 5660 5657 5654 5650 5645 5640 5635 5630 5625 5620 5615 5609 5603 5597 5591 5584 5578
5669 5670 5671 5671 5671 5670 5669 5669 5671 5672 5673 5673 5673 5673 5672 5672 5672 5672 5671 5670 5668 5666 5665 5663 5661 5659 5656 5653 5649 5645 5641 5636 5631 5627 5622 5618 5613 5607 5600 5594 5587 5581 5575 5569
5663 5664 5664 5665 5664 5664 5663 5662 5663 5663 5663 5663 5663 5663 5663 5664 5664 5664 5664 5663 5662 5661 5659 5657 5655 5653 5650 5646 5642 5638 5634 5629 5625 5620 5615 5610 5605 5598 5591 5584 5578 5573 5568 5563
5657 5657 5657 5657 5656 5655 5655 5653 5653 5653 5653 5653 5653 5653 5654 5655 5657 5658 5658 5658 5657 5656 5655 5653 5651 5648 5644 5641 5637 5633 5628 5624 5619 5614 5608 5602 5596 5589 5584 5578 5573 5568 5564 5559